Location: Battery Park City
(40.7115°N, 74.0163°W)
Time: 03:26:19
(UTC+00:00)

IRS-1C Rocket - Pass Details

Date: 08 December 2019
Orbit: 800 x 806 km, 99.0° (Epoch: 27 January)

Event Time Altitude Azimuth Distance (km) Brightness Sun altitude
Rises 21:57:21 0° 154° (SSE) 3,306 7.3 -5.7°
Reaches altitude 10° 21:59:42 10° 151° (SSE) 2,379 6.5 -6.1°
Maximum altitude 22:04:52 62° 72° (ENE) 908 4.1 -7.0°
Drops below altitude 10° 22:10:04 10° 353° (N) 2,392 6.4 -7.9°
Sets 22:12:26 0° 350° (N) 3,326 7.2 -8.3°
